Madison, MN

3:51 PM CDT on September 18, 2019 (GMT -0500)
Madison-Lac Qui Parle County

Weather History for KDXX - July, 2019

Change the Weather History Date:

Friday, July 26, 2019

  Actual Average (KAQP) Record (KAQP)
Temperature  
Mean Temperature 80 °F -  
Max Temperature 91 °F 79 °F 89 °F (2019)
Min Temperature 69 °F 59 °F 48 °F (2004)
Cooling Degree Days 15    
Growing Degree Days 30 (Base 50)    
Moisture  
Dew Point 65 °F    
Average Humidity 66    
Maximum Humidity 88    
Minimum Humidity 36    
Precipitation  
Precipitation 0.00 in - - ()
Sea Level Pressure  
Sea Level Pressure 29.93 in    
Wind  
Wind Speed 6 mph (SW)    
Max Wind Speed 15 mph    
Max Gust Speed 20 mph    
Visibility 10 miles    
Events Rain , Thunderstorm    
Averages and records for this station are not official NWS values.
T = Trace of Precipitation, MM = Missing Value Source: NWS Daily Summary

Daily Weather History Graph

Daily Weather History Graph

Search for Another Location

Airport or City:

Astronomy

Jul. 26, 2019 Rise Set
Actual Time 6:03 AM CDT 8:58 PM CDT
Civil Twilight 5:28 AM CDT 9:33 PM CDT
Nautical Twilight 4:44 AM CDT 10:16 PM CDT
Astronomical Twilight 3:52 AM CDT 11:08 PM CDT
Moon 1:22 AM CDT (7/26) 3:41 PM CDT (7/26)
Length of Visible Light 16h 04m
Length of Day
14h 55m
Waning Crescent, 34% of the Moon is Illuminated
Jul 26
Waning Crescent
Jul 31
New
Aug 7
First Quarter
Aug 15
Full
Aug 23
Last Quarter

Hourly Weather History & Observations

Time (CDT) Temp. Heat Index Dew Point Humidity Pressure Visibility Wind Dir Wind Speed Gust Speed Precip Events Conditions
12:15 AM 69.8 °F - 66.2 °F 88% 29.93 in 10.0 mi South 3.5 mph - N/A   Clear
12:35 AM 69.8 °F - 66.2 °F 88% 29.93 in 10.0 mi SE 4.6 mph - N/A   Clear
12:36 AM 69.8 °F - 66.2 °F 88% 29.93 in 10.0 mi SE 4.6 mph - N/A   Clear
12:59 AM 69.8 °F - 66.2 °F 88% 29.93 in 10.0 mi SSE 3.5 mph - N/A   Clear
1:16 AM 69.8 °F - 66.2 °F 88% 29.93 in 10.0 mi SSE 4.6 mph - N/A   Clear
1:36 AM 69.8 °F - 66.2 °F 88% 29.93 in 10.0 mi SE 4.6 mph - N/A   Clear
1:55 AM 69.8 °F - 66.2 °F 88% 29.92 in 10.0 mi SSE 4.6 mph - N/A   Scattered Clouds
1:56 AM 69.8 °F - 66.2 °F 88% 29.92 in 10.0 mi SSE 5.8 mph - N/A   Scattered Clouds
2:15 AM 69.8 °F - 66.2 °F 88% 29.91 in 10.0 mi SSE 4.6 mph - N/A   Scattered Clouds
2:19 AM 69.8 °F - 66.2 °F 88% 29.91 in 10.0 mi SSE 4.6 mph - N/A   Scattered Clouds
2:38 AM 71.6 °F - 68.0 °F 88% 29.90 in 10.0 mi South 5.8 mph - N/A Thunderstorm Thunderstorm
2:55 AM 71.6 °F - 68.0 °F 88% 29.89 in 10.0 mi South 5.8 mph - N/A Thunderstorm Thunderstorm
3:15 AM 71.6 °F - 68.0 °F 88% 29.88 in 10.0 mi Calm Calm - N/A Thunderstorm Overcast
3:16 AM 71.6 °F - 68.0 °F 88% 29.88 in 10.0 mi Calm Calm - N/A Thunderstorm Overcast
3:35 AM 71.6 °F - 68.0 °F 88% 29.90 in 10.0 mi NE 6.9 mph - N/A Rain , Thunderstorm Light Thunderstorms and Rain
3:58 AM 69.8 °F - 66.2 °F 88% 29.89 in 10.0 mi ESE 5.8 mph - N/A   Mostly Cloudy
4:16 AM 69.8 °F - 66.2 °F 88% 29.90 in 10.0 mi East 5.8 mph - N/A   Mostly Cloudy
4:35 AM 69.8 °F - 66.2 °F 88% 29.92 in 10.0 mi ENE 5.8 mph - N/A Thunderstorm Mostly Cloudy
4:36 AM 69.8 °F - 66.2 °F 88% 29.92 in 10.0 mi East 5.8 mph - N/A Thunderstorm Mostly Cloudy
4:55 AM 69.8 °F - 66.2 °F 88% 29.92 in 10.0 mi East 6.9 mph - N/A   Mostly Cloudy
5:15 AM 69.8 °F - 66.2 °F 88% 29.92 in 10.0 mi ESE 8.1 mph - N/A   Scattered Clouds
5:20 AM 69.8 °F - 66.2 °F 88% 29.92 in 10.0 mi SE 8.1 mph - N/A Thunderstorm Scattered Clouds
5:37 AM 69.8 °F - 66.2 °F 88% 29.92 in 10.0 mi SE 8.1 mph - N/A   Scattered Clouds
5:55 AM 69.8 °F - 66.2 °F 88% 29.93 in 10.0 mi SE 9.2 mph - N/A   Scattered Clouds
6:15 AM 69.8 °F - 66.2 °F 88% 29.93 in 10.0 mi SSE 9.2 mph - N/A   Scattered Clouds
6:35 AM 69.8 °F - 66.2 °F 88% 29.93 in 10.0 mi SSE 8.1 mph - N/A   Clear
6:36 AM 69.8 °F - 66.2 °F 88% 29.93 in 10.0 mi SSE 8.1 mph - N/A   Clear
6:58 AM 69.8 °F - 66.2 °F 88% 29.93 in 10.0 mi SSE 8.1 mph - N/A   Clear
7:17 AM 69.8 °F - 66.2 °F 88% 29.94 in 10.0 mi South 5.8 mph - N/A   Clear
7:36 AM 71.6 °F - 66.2 °F 83% 29.94 in 10.0 mi South 6.9 mph - N/A   Clear
7:55 AM 71.6 °F - 66.2 °F 83% 29.94 in 10.0 mi South 6.9 mph - N/A   Clear
7:56 AM 71.6 °F - 66.2 °F 83% 29.94 in 10.0 mi South 6.9 mph - N/A   Clear
8:15 AM 73.4 °F - 66.2 °F 78% 29.94 in 10.0 mi South 8.1 mph - N/A   Clear
8:37 AM 73.4 °F - 66.2 °F 78% 29.94 in 10.0 mi South 6.9 mph - N/A   Clear
8:56 AM 75.2 °F - 66.2 °F 73% 29.94 in 10.0 mi SSW 5.8 mph - N/A   Clear
9:15 AM 75.2 °F - 68.0 °F 78% 29.94 in 10.0 mi SSW 6.9 mph - N/A   Clear
9:16 AM 75.2 °F - 68.0 °F 78% 29.94 in 10.0 mi South 8.1 mph - N/A   Clear
9:35 AM 77.0 °F - 68.0 °F 74% 29.94 in 10.0 mi SSW 6.9 mph - N/A   Clear
9:36 AM 77.0 °F - 68.0 °F 74% 29.94 in 10.0 mi SSW 5.8 mph - N/A   Clear
9:59 AM 78.8 °F - 69.8 °F 74% 29.93 in 10.0 mi South 5.8 mph - N/A   Clear
10:16 AM 78.8 °F - 69.8 °F 74% 29.93 in 10.0 mi SSW 5.8 mph - N/A   Clear
10:36 AM 80.6 °F 84.6 °F 71.6 °F 74% 29.94 in 10.0 mi WSW 6.9 mph - N/A   Clear
10:56 AM 82.4 °F 87.2 °F 71.6 °F 70% 29.94 in 10.0 mi WSW 4.6 mph - N/A   Clear
11:15 AM 82.4 °F 87.2 °F 71.6 °F 70% 29.94 in 10.0 mi WSW 4.6 mph - N/A   Clear
11:16 AM 82.4 °F 87.2 °F 71.6 °F 70% 29.94 in 10.0 mi SW 4.6 mph - N/A   Clear
11:35 AM 84.2 °F 89.6 °F 71.6 °F 66% 29.94 in 10.0 mi SW 6.9 mph - N/A   Clear
11:40 AM 84.2 °F 89.6 °F 71.6 °F 66% 29.94 in 10.0 mi SSW 5.8 mph - N/A   Clear
11:57 AM 86.0 °F 91.8 °F 71.6 °F 62% 29.93 in 10.0 mi SW 4.6 mph - N/A   Clear
12:15 PM 87.8 °F 92.6 °F 69.8 °F 55% 29.93 in 10.0 mi SSW 5.8 mph - N/A   Clear
12:35 PM 87.8 °F 91.4 °F 68.0 °F 52% 29.93 in 10.0 mi SW 4.6 mph - N/A   Clear
12:55 PM 89.6 °F 92.2 °F 66.2 °F 46% 29.93 in 10.0 mi SSW 5.8 mph - N/A   Clear
12:56 PM 89.6 °F 92.2 °F 66.2 °F 46% 29.93 in 10.0 mi SW 5.8 mph - N/A   Clear
1:18 PM 89.6 °F 92.2 °F 66.2 °F 46% 29.93 in 10.0 mi SW 6.9 mph - N/A   Clear
1:37 PM 91.4 °F 92.1 °F 62.6 °F 38% 29.93 in 10.0 mi WSW 8.1 mph - N/A   Clear
1:56 PM 91.4 °F 92.1 °F 62.6 °F 38% 29.93 in 10.0 mi West 10.4 mph - N/A   Clear
2:15 PM 91.4 °F 92.1 °F 62.6 °F 38% 29.92 in 10.0 mi West 5.8 mph - N/A   Clear
2:35 PM 91.4 °F 92.1 °F 62.6 °F 38% 29.92 in 10.0 mi West 5.8 mph - N/A   Clear
2:39 PM 91.4 °F 93.2 °F 64.4 °F 41% 29.92 in 10.0 mi WSW 8.1 mph - N/A   Clear
2:57 PM 91.4 °F 93.2 °F 64.4 °F 41% 29.92 in 10.0 mi West 6.9 mph - N/A   Clear
3:16 PM 91.4 °F 92.1 °F 62.6 °F 38% 29.92 in 10.0 mi West 11.5 mph 17.3 mph N/A   Clear
3:35 PM 91.4 °F 92.1 °F 62.6 °F 38% 29.92 in 10.0 mi West 11.5 mph - N/A   Clear
3:36 PM 91.4 °F 92.1 °F 62.6 °F 38% 29.92 in 10.0 mi West 12.7 mph - N/A   Clear
3:55 PM 91.4 °F 92.1 °F 62.6 °F 38% 29.92 in 10.0 mi West 13.8 mph - N/A   Clear
3:56 PM 91.4 °F 92.1 °F 62.6 °F 38% 29.92 in 10.0 mi West 12.7 mph - N/A   Clear
4:18 PM 91.4 °F 91.4 °F 60.8 °F 36% 29.92 in 10.0 mi WNW 12.7 mph 18.4 mph N/A   Clear
4:36 PM 91.4 °F 91.4 °F 60.8 °F 36% 29.92 in 10.0 mi West 11.5 mph - N/A   Clear
4:55 PM 91.4 °F 91.4 °F 60.8 °F 36% 29.92 in 10.0 mi West 11.5 mph 19.6 mph N/A   Clear
4:56 PM 91.4 °F 91.4 °F 60.8 °F 36% 29.92 in 10.0 mi West 12.7 mph - N/A   Clear
5:15 PM 91.4 °F 92.1 °F 62.6 °F 38% 29.92 in 10.0 mi West 11.5 mph - N/A   Clear
5:16 PM 91.4 °F 92.1 °F 62.6 °F 38% 29.92 in 10.0 mi West 11.5 mph - N/A   Clear
5:35 PM 89.6 °F 92.2 °F 66.2 °F 46% 29.91 in 10.0 mi West 10.4 mph - N/A   Clear
5:40 PM 89.6 °F 92.2 °F 66.2 °F 46% 29.91 in 10.0 mi West 10.4 mph - N/A   Scattered Clouds
5:57 PM 89.6 °F 91.1 °F 64.4 °F 43% 29.91 in 10.0 mi WNW 12.7 mph - N/A   Clear
6:15 PM 89.6 °F 90.1 °F 62.6 °F 40% 29.91 in 10.0 mi WNW 15.0 mph - N/A   Clear
6:35 PM 89.6 °F 91.1 °F 64.4 °F 43% 29.91 in 10.0 mi NW 11.5 mph 17.3 mph N/A   Clear
6:55 PM 87.8 °F 89.4 °F 64.4 °F 46% 29.91 in 10.0 mi NW 11.5 mph - N/A   Clear
6:56 PM 87.8 °F 89.4 °F 64.4 °F 46% 29.91 in 10.0 mi NW 12.7 mph - N/A   Clear
7:18 PM 87.8 °F 89.4 °F 64.4 °F 46% 29.92 in 10.0 mi NW 11.5 mph - N/A   Clear
7:37 PM 84.2 °F 83.8 °F 59.0 °F 42% 29.92 in 10.0 mi NW 9.2 mph - N/A   Clear
7:56 PM 82.4 °F 82.9 °F 60.8 °F 48% 29.92 in 10.0 mi NW 4.6 mph - N/A   Clear
8:15 PM 82.4 °F 83.4 °F 62.6 °F 51% 29.92 in 10.0 mi NW 5.8 mph - N/A   Clear
8:16 PM 82.4 °F 83.4 °F 62.6 °F 51% 29.92 in 10.0 mi NW 5.8 mph - N/A   Clear
8:35 PM 80.6 °F 81.8 °F 62.6 °F 54% 29.93 in 10.0 mi NW 5.8 mph - N/A   Clear
8:39 PM 78.8 °F - 62.6 °F 57% 29.93 in 10.0 mi NW 5.8 mph - N/A   Clear
8:57 PM 78.8 °F - 62.6 °F 57% 29.94 in 10.0 mi WNW 4.6 mph - N/A   Clear
9:16 PM 77.0 °F - 60.8 °F 57% 29.94 in 10.0 mi NW 6.9 mph - N/A   Clear
9:35 PM 77.0 °F - 60.8 °F 57% 29.95 in 10.0 mi WNW 5.8 mph - N/A   Clear
9:36 PM 75.2 °F - 60.8 °F 61% 29.95 in 10.0 mi WNW 5.8 mph - N/A   Clear
9:55 PM 73.4 °F - 60.8 °F 65% 29.96 in 10.0 mi WNW 4.6 mph - N/A   Clear
9:56 PM 73.4 °F - 60.8 °F 65% 29.96 in 10.0 mi WNW 4.6 mph - N/A   Clear
10:19 PM 71.6 °F - 62.6 °F 73% 29.97 in 10.0 mi West 5.8 mph - N/A   Clear
10:36 PM 71.6 °F - 60.8 °F 69% 29.97 in 10.0 mi WSW 3.5 mph - N/A   Clear
10:56 PM 71.6 °F - 60.8 °F 69% 29.98 in 10.0 mi West 5.8 mph - N/A   Clear
11:15 PM 71.6 °F - 60.8 °F 69% 29.98 in 10.0 mi West 5.8 mph - N/A   Clear
11:16 PM 71.6 °F - 60.8 °F 69% 29.98 in 10.0 mi West 5.8 mph - N/A   Clear
11:35 PM 71.6 °F - 60.8 °F 69% 29.98 in 10.0 mi NW 6.9 mph - N/A   Clear
11:39 PM 69.8 °F - 62.6 °F 78% 29.99 in 10.0 mi NNW 9.2 mph - N/A   Clear
11:58 PM 69.8 °F - 60.8 °F 73% 29.99 in 10.0 mi WNW 4.6 mph - N/A   Clear